Probability
0 0 0 0 0 0 0 0 0 0 0 0 0 0 0 0 0 0 0 0 0 0 0 0 0 0 0 0 0 0 0 0 0 0 0 0 0 0 0 0 0 0 0 0
0 0 0 0 0 0 0 0 0 0 0 0 0 0 0 0 0 0 0 0 0 0 0 0 0 0 0 0 0 0 0 0 0 0 0 0 0 0 0 0 0 0 0 0
0 0 0 0 0 0 0 0 0 0 0 0 0 0 0 0 0 0 0 0 0 0 0 0 0 0 0 0 0 0 0 0 0 0 0 0 0 0 0 0 0 0 0 0
0 0 0 0 0 0 0 0 0 0 0 0 0 0 0 0 0 0 0 0 0 0 0 0 0 0 0 0 0 0 0 0 0 0 0 0 0 0 0 0 0 0 0 0
0 0 0 0 0 0 0 0 0 0 0 0 0 0 0 0 0 0 0 0 0 0 0 0 0 0 0 0 0 0 0 0 0 0 0 0 0 0 0 0 0 0 0 0
0 0 0 0 0 0 0 0 0 0 0 0 0 0 0 0 0 0 0 0 0 0 0 0 0 0 0 0 0 0 0 0 0 0 0 0 0 0 0 0 0 0 0 0
0 0 0 0 0 0 0 0 0 0 0 0 0 0 0 0 0 0 0 0 0 0 0 0 0 0 0 0 0 0 0 0 0 0 0 0 0 0 0 0 0 0 0 0
0 0 0 0 0 0 0 0 0 0 0 0 0 0 0 0 0 0 0 0 0 0 0 0 0 0 0 0 0 0 0 0 0 0 0 0 0 0 0 0 0 0 0 0
0 0 0 0 0 0 0 0 0 0 0 0 0 0 0 0 0 0 0 0 0 0 0 0 0 0 0 0 0 0 0 0 0 0 0 0 0 0 0 0 0 0 0 0
0 0 0 0 0 0 0 0 0 0 0 0 0 0 0 0 0 0 0 0 0 0 0 0 0 0 0 0 0 0 0 0 0 0 0 0 0 0 0 0 0 0 0 0
0 0 0 0 0 0 0 0 0 0 0 0 0 0 0 0 0 0 0 0 0 0 0 0 0 0 0 0 0 0 0 0 0 0 0 0 0 0 0 0 0 0 0 0
0 0 0 0 0 0 0 0 0 0 0 0 0 0 0 0 0 0 0 0 0 0 0 0 0 0 0 0 0 0 0 0 0 0 0 0 0 0 0 0 0 0 0 0
0 0 0 0 0 0 0 0 0 0 0 0 0 0 0 0 0 0 0 0 0 0 0 0 0 0 0 0 0 0 0 0 0 0 0 0 0 0 0 0 0 0 0 0
0 0 0 0 0 0 0 0 0 0 0 0 0 0 0 0 0 0 0 0 0 0 0 0 0 0 0 0 0 0 0 0 0 0 0 0 0 0 0 0 0 0 0 0
0 0 0 0 0 0 0 0 0 0 0 0 0 0 0 0 0 0 0 0 0 0 0 0 0 0 0 0 0 0 0 0 0 0 0 0 0 0 0 0 0 0 0 0
0 0 0 0 0 0 0 0 0 0 0 0 0 0 0 0 0 0 0 0 0 0 0 0 0 0 0 0 0 0 0 0 0 0 0 0 0 0 0 0 0 0 0 0
0 0 0 0 0 0 0 0 0 0 0 0 0 0 0 0 0 0 0 0 0 0 0 0 0 0 0 0 0 0 0 0 0 0 0 0 0 0 0 0 0 0 0 0
0 0 0 0 0 0 0 0 0 0 0 0 0 0 0 0 0 0 0 0 0 0 0 0 0 0 0 0 0 0 0 0 0 0 0 0 0 0 0 0 0 0 0 0
0 0 0 0 0 0 0 0 0 0 0 0 0 0 0 0 0 0 0 0 0 0 0 0 0 0 0 0 0 0 0 0 0 0 0 0 0 0 0 0 0 0 0 0
0 0 0 0 0 0 0 0 0 0 0 0 0 0 0 0 0 0 0 0 0 0 0 0 0 0 0 0 0 0 0 0 0 0 0 0 0 0 0 0 0 0 0 0
0 0 0 0 0 0 0 0 0 0 0 0 0 0 0 0 0 0 0 0 0 0 0 0 0 0 0 0 0 0 0 0 0 0 0 0 0 0 0 0 0 0 0 0
0 0 0 0 0 0 0 0 0 0 0 0 0 0 0 0 0 0 0 0 0 0 0 0 0 0 0 0 0 0 0 0 0 0 0 0 0 0 0 0 0 0 0 0
0 0 0 0 0 0 0 0 0 0 0 0 0 0 0 0 0 0 0 0 0 0 0 0 0 0 0 0 0 0 0 0 0 0 0 0 0 0 0 0 0 0 0 0
0 0 0 0 0 0 0 0 0 0 0 0 0 0 0 0 0 0 0 0 0 0 0 0 0 0 0 0 0 0 0 0 0 0 0 0 0 0 0 0 0 0 0 0
0 0 0 0 0 0 0 0 0 0 0 0 0 0 0 0 0 0 0 0 0 0 0 0 0 0 0 0 0 0 0 0 0 0 0 0 0 0 0 0 0 0 0 0
0 0 0 0 0 0 0 0 0 0 0 0 0 0 0 0 0 0 0 0 0 0 0 0 0 0 0 0 0 0 0 0 0 0 0 0 0 0 0 0 0 0 0 0
Height
5802 5805 5808 5810 5811 5812 5813 5815 5817 5818 5817 5819 5820 5820 5821 5820 5820 5820 5820 5819 5819 5818 5818 5817 5817 5816 5815 5815 5814 5813 5812 5811 5810 5808 5807 5805 5803 5801 5799 5797 5795 5792 5790 5788
5795 5799 5802 5801 5802 5804 5806 5807 5809 5810 5810 5811 5813 5814 5814 5814 5814 5814 5814 5813 5813 5812 5812 5811 5811 5810 5810 5809 5808 5807 5806 5805 5804 5802 5800 5798 5796 5794 5792 5790 5788 5785 5783 5781
5787 5793 5792 5793 5795 5797 5799 5801 5802 5802 5803 5803 5805 5808 5808 5808 5807 5808 5808 5807 5806 5806 5805 5805 5805 5804 5804 5803 5802 5801 5800 5799 5797 5795 5794 5792 5789 5787 5785 5783 5780 5778 5775 5773
5779 5783 5784 5786 5788 5790 5792 5793 5794 5794 5795 5796 5798 5799 5802 5801 5801 5801 5801 5800 5800 5799 5799 5799 5798 5798 5798 5797 5796 5795 5794 5792 5791 5789 5787 5785 5783 5780 5778 5775 5773 5770 5767 5765
5773 5776 5777 5779 5782 5782 5785 5785 5786 5787 5787 5789 5790 5790 5796 5794 5794 5794 5794 5794 5793 5793 5793 5792 5792 5792 5791 5791 5790 5788 5787 5785 5784 5782 5780 5778 5775 5773 5770 5767 5765 5762 5759 5756
5765 5767 5769 5772 5774 5775 5777 5778 5778 5779 5780 5783 5785 5782 5787 5788 5787 5787 5788 5787 5786 5786 5786 5786 5786 5785 5785 5784 5783 5782 5780 5778 5777 5774 5772 5770 5767 5765 5762 5759 5756 5753 5750 5747
5757 5760 5762 5765 5767 5768 5770 5772 5772 5772 5773 5776 5777 5776 5781 5782 5781 5780 5781 5781 5780 5780 5780 5780 5779 5779 5778 5777 5776 5774 5773 5771 5769 5767 5764 5762 5759 5756 5753 5750 5747 5744 5740 5737
5749 5752 5756 5758 5760 5762 5763 5764 5766 5766 5766 5768 5769 5769 5774 5775 5774 5773 5774 5774 5774 5774 5774 5773 5773 5772 5771 5770 5769 5767 5765 5763 5761 5758 5756 5753 5750 5747 5744 5741 5738 5734 5731 5727
5742 5745 5748 5750 5752 5754 5755 5757 5759 5758 5758 5760 5761 5764 5767 5767 5767 5767 5768 5768 5767 5767 5767 5767 5766 5765 5764 5763 5761 5759 5757 5755 5752 5750 5747 5744 5741 5738 5735 5731 5728 5724 5720 5716
5734 5737 5740 5742 5744 5746 5748 5750 5750 5750 5751 5752 5754 5757 5759 5760 5760 5761 5761 5761 5761 5761 5760 5760 5759 5758 5757 5755 5753 5751 5749 5746 5744 5741 5738 5735 5732 5728 5724 5721 5717 5713 5709 5705
5726 5729 5732 5735 5737 5740 5741 5742 5743 5743 5744 5746 5747 5752 5752 5753 5753 5754 5754 5754 5754 5754 5753 5752 5751 5750 5749 5747 5745 5743 5740 5738 5735 5732 5728 5725 5721 5718 5714 5710 5706 5702 5697 5693
5718 5721 5724 5728 5730 5731 5732 5734 5735 5737 5738 5739 5740 5746 5745 5745 5745 5746 5746 5747 5747 5746 5746 5745 5743 5742 5740 5739 5736 5734 5731 5728 5725 5722 5718 5715 5711 5707 5703 5699 5694 5690 5686 5681
5711 5714 5717 5719 5723 5724 5726 5728 5729 5730 5731 5731 5732 5739 5738 5738 5737 5737 5738 5739 5739 5738 5738 5736 5735 5734 5732 5730 5727 5725 5722 5718 5715 5711 5708 5704 5700 5696 5692 5687 5683 5678 5673 5668
5705 5707 5711 5714 5716 5718 5719 5721 5722 5722 5723 5725 5727 5730 5731 5730 5730 5730 5730 5730 5730 5730 5729 5728 5727 5725 5723 5721 5718 5715 5712 5708 5705 5701 5697 5693 5689 5684 5680 5675 5670 5665 5660 5655
5697 5700 5703 5706 5708 5710 5712 5714 5715 5715 5717 5718 5721 5722 5724 5722 5722 5722 5722 5722 5722 5721 5720 5719 5718 5716 5713 5711 5708 5705 5702 5698 5694 5690 5686 5682 5677 5673 5668 5663 5658 5652 5647 5642
5690 5694 5696 5699 5700 5701 5703 5706 5707 5709 5710 5711 5712 5714 5716 5714 5713 5714 5714 5713 5713 5712 5711 5710 5708 5706 5703 5701 5698 5694 5691 5687 5683 5679 5675 5670 5665 5660 5655 5650 5645 5639 5633 5628
5683 5687 5689 5691 5693 5693 5695 5699 5700 5701 5703 5704 5704 5708 5707 5706 5706 5705 5705 5704 5704 5703 5701 5700 5698 5695 5693 5690 5687 5683 5679 5675 5671 5667 5663 5658 5653 5648 5642 5637 5631 5625 5619 5614
5676 5678 5681 5683 5685 5684 5692 5693 5693 5694 5695 5696 5696 5698 5698 5698 5697 5697 5696 5695 5694 5693 5691 5689 5687 5685 5682 5679 5675 5672 5668 5664 5659 5655 5650 5645 5640 5635 5629 5623 5617 5611 5605 5599
5668 5671 5673 5675 5676 5678 5683 5685 5685 5685 5687 5689 5688 5688 5689 5688 5688 5688 5687 5685 5684 5682 5681 5679 5676 5673 5670 5667 5664 5660 5656 5652 5647 5642 5638 5632 5627 5621 5615 5610 5604 5597 5591 5585
5660 5663 5666 5667 5667 5669 5677 5678 5677 5678 5679 5681 5679 5679 5679 5679 5679 5679 5677 5676 5674 5672 5670 5667 5665 5662 5659 5656 5652 5648 5644 5639 5635 5630 5625 5619 5613 5608 5602 5596 5589 5583 5576 5569
5652 5654 5657 5658 5659 5662 5668 5668 5669 5670 5673 5672 5670 5670 5670 5670 5670 5669 5667 5665 5663 5661 5659 5656 5654 5651 5647 5644 5640 5636 5631 5627 5622 5617 5612 5606 5600 5594 5588 5581 5575 5567 5561 5554
5644 5646 5648 5650 5651 5657 5660 5659 5660 5661 5661 5661 5661 5661 5661 5660 5659 5658 5657 5655 5653 5650 5648 5645 5642 5639 5636 5632 5628 5624 5619 5614 5609 5604 5598 5592 5586 5579 5573 5566 5559 5551 5544 5537
5636 5640 5641 5643 5647 5649 5649 5650 5650 5651 5651 5651 5651 5651 5651 5650 5649 5648 5646 5644 5642 5639 5637 5634 5630 5627 5623 5619 5615 5611 5606 5601 5596 5590 5584 5578 5572 5565 5557 5550 5543 5535 5527 5519
5629 5631 5632 5634 5637 5639 5639 5640 5640 5641 5641 5641 5641 5641 5641 5640 5638 5637 5635 5633 5630 5628 5625 5622 5618 5615 5611 5607 5602 5598 5592 5587 5582 5576 5570 5563 5557 5550 5542 5534 5526 5518 5509 5500
5620 5622 5623 5625 5628 5629 5630 5631 5631 5631 5631 5631 5631 5631 5630 5629 5627 5626 5624 5621 5619 5616 5613 5609 5606 5602 5598 5594 5589 5584 5578 5573 5568 5562 5555 5548 5541 5534 5526 5518 5509 5500 5491 5479
5611 5614 5616 5618 5620 5621 5622 5622 5622 5622 5621 5621 5621 5620 5619 5618 5616 5614 5612 5609 5607 5604 5600 5597 5593 5589 5585 5580 5575 5570 5564 5559 5553 5547 5540 5532 5525 5517 5509 5501 5493 5483 5472 5461
Wind_Speed
33 34 32 31 33 33 35 35 34 34 34 33 31 31 29 29 28 26 26 26 25 24 23 23 23 23 23 23 23 23 23 24 24 25 26 26 27 27 28 28 29 30 30 31
34 32 31 33 34 34 34 34 33 34 35 33 33 31 30 28 28 26 25 25 25 24 24 23 23 23 23 23 23 23 24 24 25 26 27 27 28 28 29 29 30 31 31 32
33 29 32 34 34 34 33 32 32 34 34 34 34 31 29 29 29 27 25 25 26 25 24 24 24 24 24 24 24 24 24 25 26 27 28 28 29 30 30 30 31 31 32 33
33 31 33 33 33 33 32 32 33 34 35 34 34 32 28 28 28 27 25 25 25 25 24 24 24 24 24 24 24 24 25 26 27 28 28 29 30 30 31 32 32 33 34 35
32 31 32 32 31 32 31 32 33 34 35 35 33 34 27 28 26 26 25 24 25 24 24 24 24 24 24 24 25 25 26 26 27 28 29 30 31 32 32 33 34 35 36 37
32 32 31 30 30 31 31 32 33 35 36 35 30 34 28 25 25 26 25 24 24 24 24 24 24 24 24 25 25 26 26 27 28 30 31 32 32 33 34 35 36 37 38 39
31 31 30 30 31 31 31 31 33 35 35 33 31 33 28 24 25 25 24 24 24 24 24 24 24 24 25 25 26 27 28 29 30 31 32 33 34 35 36 37 38 39 40 41
32 31 31 31 31 31 31 32 33 35 35 33 32 32 26 23 24 25 24 23 24 24 24 24 24 25 25 26 27 28 29 30 32 33 34 35 36 37 38 39 40 41 42 43
33 32 31 32 32 32 32 32 33 35 36 35 33 31 27 23 23 24 23 23 24 24 24 24 25 25 26 27 28 30 31 32 33 34 35 37 38 39 40 42 43 43 44 45
33 34 33 33 34 34 34 33 34 36 36 36 33 29 26 23 23 23 23 24 24 24 24 25 25 26 27 29 30 31 32 34 35 36 38 39 40 41 42 44 45 45 46 47
33 34 33 33 33 33 33 34 34 36 36 34 32 28 25 25 24 24 24 24 24 25 25 25 26 27 28 29 31 32 34 35 37 38 40 41 42 43 44 45 46 46 47 48
32 33 33 32 32 33 33 32 32 33 33 32 32 29 25 26 25 26 26 25 25 25 26 27 28 29 30 31 32 34 36 37 39 40 41 42 43 44 45 46 47 47 48 49
32 33 33 32 32 32 31 30 30 31 32 33 33 28 25 26 27 28 27 27 27 27 28 28 29 30 32 33 34 36 38 40 41 42 43 44 45 46 46 47 48 49 50 51
32 32 31 30 29 28 29 29 30 32 33 32 31 27 25 26 28 29 29 29 29 29 29 30 31 32 34 35 37 38 40 41 43 44 45 45 46 47 48 49 50 51 52 53
32 31 30 29 30 30 30 29 30 32 31 31 28 28 25 28 30 30 30 30 30 30 31 32 33 35 36 38 39 40 42 43 44 45 46 47 48 49 50 51 52 53 54 54
32 31 31 30 31 32 32 31 31 31 31 32 31 28 25 29 31 32 32 31 31 32 33 34 36 37 38 40 41 42 43 44 45 46 47 48 49 50 51 52 53 54 55 56
32 32 31 32 32 34 34 30 31 31 31 32 32 28 28 31 32 33 33 33 33 34 35 36 38 39 40 41 42 43 44 45 46 47 48 49 51 52 53 54 55 55 56 57
34 33 33 32 33 37 31 29 30 31 30 31 31 30 31 32 33 34 34 35 36 36 37 38 39 40 41 42 43 44 45 46 47 48 50 51 52 53 54 54 55 56 57 59
34 34 34 34 35 34 32 30 30 32 31 30 31 32 33 33 34 34 34 35 36 37 38 39 40 41 42 43 44 45 46 47 49 50 51 52 53 54 54 55 56 58 59 60
35 35 36 36 36 35 30 30 31 33 31 28 31 32 32 33 33 33 35 36 37 38 39 40 41 41 42 43 45 46 47 49 50 51 51 53 54 55 56 57 58 59 61 62
34 35 36 36 36 35 31 30 31 32 29 29 31 31 32 33 34 35 36 37 38 39 40 41 41 42 43 45 46 47 48 49 50 51 52 54 55 56 57 58 59 61 62 64
34 35 35 35 37 33 30 32 32 32 32 33 33 33 33 34 35 35 36 38 39 40 40 41 42 43 44 45 46 47 49 50 51 52 53 54 55 57 58 60 61 63 65 66
33 33 34 35 34 32 32 33 33 33 34 34 34 35 35 35 36 37 37 38 39 40 41 42 43 44 45 46 47 48 49 50 51 53 54 55 57 58 60 62 63 65 67 69
32 32 33 34 33 33 33 33 34 35 35 36 36 36 36 37 37 38 38 39 40 41 42 42 43 44 45 46 48 49 50 52 53 54 55 57 59 60 62 64 66 68 70 72
33 33 34 34 33 33 34 35 35 36 36 36 37 37 38 38 39 39 40 41 41 42 42 43 44 45 46 47 49 50 52 53 54 56 58 59 61 63 64 66 68 71 73 76
34 34 34 34 33 34 34 35 36 36 36 37 37 38 38 39 40 41 41 42 42 42 43 44 45 46 47 49 50 52 53 55 57 58 60 61 63 65 67 69 71 73 75 77
Wind_Direction
249 251 252 253 254 254 254 254 253 254 256 257 258 259 261 263 264 263 263 264 265 267 268 268 270 270 271 272 274 276 277 279 281 283 284 285 285 285 286 286 286 285 285 285
249 251 251 252 254 255 254 253 253 254 256 258 257 257 259 262 262 262 262 263 264 265 265 265 266 268 269 271 273 275 278 280 282 283 285 286 286 286 286 286 285 286 286 285
249 249 248 251 253 254 254 253 254 255 256 257 258 257 259 260 262 262 261 262 262 262 262 263 264 266 268 270 273 275 278 280 282 284 286 287 287 286 286 286 286 286 286 286
247 246 248 250 252 253 253 254 254 255 256 257 260 259 258 260 261 261 260 260 260 260 260 261 263 265 268 270 273 276 279 281 283 285 286 287 287 286 286 287 287 287 287 286
246 246 247 249 249 251 251 252 253 253 255 257 260 262 255 260 260 260 259 259 258 257 257 258 261 264 267 271 274 277 280 282 284 285 286 287 287 287 287 288 288 288 288 287
243 242 244 245 244 247 248 249 252 254 257 258 259 262 260 259 259 259 259 257 257 256 256 258 261 264 268 271 275 278 281 283 285 286 287 287 287 287 288 289 289 289 288 288
244 243 244 243 243 245 247 249 252 254 257 260 258 260 264 260 258 258 258 256 256 256 257 259 262 265 268 272 275 279 282 284 286 287 287 288 288 289 290 290 290 290 290 289
241 242 244 244 244 245 246 247 251 255 257 258 259 260 262 259 258 257 258 257 257 259 260 261 264 266 270 273 277 280 283 285 287 288 288 289 289 290 290 291 291 291 290 290
242 242 242 243 242 244 245 247 250 253 256 258 259 261 259 256 256 255 256 257 258 261 263 264 266 268 271 275 278 281 284 286 288 289 290 290 290 290 291 291 291 292 291 291
240 241 241 242 243 244 246 247 248 252 256 259 259 259 259 255 255 256 258 258 259 262 265 267 268 271 274 277 280 282 284 287 289 290 290 291 291 291 291 292 292 292 292 292
240 242 242 242 244 246 247 247 249 251 254 258 259 258 258 259 258 258 259 260 262 265 266 268 270 273 276 279 282 283 286 288 289 290 291 292 292 293 293 293 293 293 293 293
240 243 243 243 244 244 245 246 246 248 252 255 257 257 258 260 260 261 262 263 265 267 268 269 272 275 278 280 283 285 287 289 290 291 292 293 293 294 294 294 294 294 294 294
240 244 246 245 245 246 247 247 247 248 250 253 256 259 258 258 260 262 264 266 267 268 269 272 275 277 279 282 284 286 288 290 291 292 293 293 294 295 295 295 295 295 295 295
240 244 246 248 250 249 248 247 247 249 251 255 258 259 257 258 260 263 265 267 269 270 272 274 276 278 281 283 285 287 288 289 291 292 293 294 295 295 295 296 296 296 296 296
241 244 246 246 246 246 246 246 247 250 254 256 256 256 256 260 262 264 266 269 270 272 274 276 278 280 282 284 286 287 288 289 291 293 294 295 295 296 296 296 297 297 297 297
242 244 245 246 247 249 248 247 250 252 255 259 258 257 257 259 263 267 270 271 273 274 276 278 280 282 284 285 286 288 289 290 292 293 294 295 296 296 296 297 298 298 298 298
242 244 246 246 247 250 250 252 253 256 257 258 259 258 256 260 264 268 271 273 275 277 278 279 281 283 285 286 287 289 290 291 292 294 295 295 296 296 297 298 298 298 299 299
240 243 246 247 248 251 257 254 255 257 258 259 260 260 260 263 265 269 272 274 276 278 279 281 283 285 286 288 289 290 291 293 294 295 295 296 296 297 297 298 298 299 299 300
241 244 246 249 251 255 254 256 257 258 257 259 262 263 264 266 268 271 273 275 277 279 281 283 285 286 288 289 290 291 292 293 294 295 296 296 297 297 298 298 299 299 300 301
242 244 247 251 253 256 256 256 258 260 261 262 263 264 265 268 270 273 275 277 278 281 283 284 286 287 288 290 291 292 293 294 294 295 296 297 298 298 298 299 299 300 301 301
245 247 249 252 255 257 259 259 258 260 264 262 263 265 267 269 272 274 276 277 279 281 283 284 286 288 289 290 291 292 293 294 294 295 296 297 298 299 299 300 300 301 301 302
245 248 250 253 255 258 260 261 261 263 263 264 266 267 269 271 274 276 277 278 280 283 284 286 287 288 289 291 291 292 293 294 295 296 297 298 299 299 300 301 301 302 302 303
244 248 252 253 256 258 258 261 264 264 265 266 267 269 271 273 276 277 278 280 283 285 286 287 288 289 290 291 292 293 294 296 297 297 298 298 299 300 301 302 302 303 303 304
243 246 249 251 253 256 258 260 263 265 266 268 269 271 273 275 277 279 280 282 285 287 288 288 290 291 292 293 294 295 296 297 298 298 299 299 300 301 302 302 303 304 304 305
243 245 248 251 253 256 259 261 263 265 267 269 270 273 275 277 279 281 283 285 287 288 289 290 291 292 293 294 295 296 297 298 299 299 300 301 301 302 303 303 304 305 305 306
244 247 250 252 254 256 258 260 263 265 267 270 272 274 277 279 281 283 286 287 289 290 290 291 292 293 294 295 296 296 297 299 300 301 301 302 302 303 303 304 304 305 306 306